Lexington Weather

Lexington, Massachusetts, USA

52°F
10/17/2021 10:01pm 
  • Lexington Conditions: Clear
  • Temperature: 52.0°F / 11.1°CColder 0.9°F than last hour.
  • Dew Point: 46.9°FDecreased 0.6°Fsince last hour.
  • Relative Humidity: 83%Increased 1.0% since last hour.
  • Wind: Calm, 10-min avg: Calm, gust: 3 mph
  • Barometer: 29.67 in Steady
  • Visibility: 10 miles
  • Rain Today: 0.35 in
  •   

Regional Weather Roundup
for Boston / Norton, MA

        
000
ASUS41 KBOX 112304
RWRBOX

REGIONAL WEATHER ROUNDUP
NATIONAL WEATHER SERVICE BOSTON/NORTON MA
700 PM EDT MON OCT 11 2021

NOTE:  "FAIR" INDICATES FEW OR NO CLOUDS BELOW 12,000 FEET WITH NO 
SIGNIFICANT WEATHER AND/OR OBSTRUCTIONS TO VISIBILITY.

MAZALL-120000-
EASTERN MASSACHUSETTS
  
CITY           SKY/WX    TMP DP  RH WIND       PRES   REMARKS
BOSTON         PTCLDY    63  59  87 E6        30.13R                  
BEVERLY        MOCLDY    61  58  90 N3        30.12S                  
LAWRENCE       MOCLDY    62  59  90 E3        30.14S                  
BEDFORD        PTCLDY    63  60  90 E3        30.11S                  
BLUE HILL      NOT AVBL                                               
NORWOOD        PTCLDY    62  58  86 CALM      30.12R                  
MARSHFIELD     CLOUDY    63  59  88 CALM      30.12S                  
PLYMOUTH       CLOUDY    62  59  90 NE7       30.12S                  
TAUNTON        PTCLDY    60  57  89 CALM      30.12R                  
NEW BEDFORD    CLEAR     62  59  90 CALM      30.11R                  
$$

MAZALL-120000-
CAPE COD AND THE ISLANDS
  
CITY           SKY/WX    TMP DP  RH WIND       PRES   REMARKS
FALMOUTH       PTCLDY    61  61 100 NE9       30.12R                  
HYANNIS        PTCLDY    61  59  93 N5        30.10R                  
CHATHAM        PTCLDY    62  59  90 NE5       30.12R                  
PROVINCETOWN   PTCLDY    61  60  97 NE7       30.13S                  
NANTUCKET      CLEAR     62  59  90 NE8       30.10R                  
MARTHAS VNYRD  PTCLDY    61  58  90 NE7       30.10R                  
$$
 
MAZALL-120000-
CENTRAL AND WESTERN MASSACHUSETTS
  
CITY           SKY/WX    TMP DP  RH WIND       PRES   REMARKS
WORCESTER      PTCLDY    62  58  86 CALM      30.13S                  
FITCHBURG      PTCLDY    61  57  87 CALM      30.13S                  
ORANGE         CLEAR     59  57  93 CALM      30.13S                  
SPRINGFIELD    PTCLDY    61  58  91 CALM      30.11R                  
WESTFIELD      CLEAR     62  59  90 NW5       30.12R                  
NORTH ADAMS    CLEAR     57  54  89 CALM      30.13R                  
PITTSFIELD     CLEAR     58  54  86 CALM      30.13R                  
$$
 
RIZALL-120000-
RHODE ISLAND
  
CITY           SKY/WX    TMP DP  RH WIND       PRES   REMARKS
PROVIDENCE     PTCLDY    64  58  80 NE7       30.12R                  
NEWPORT        CLEAR     60  57  89 NE7       30.11R                  
BLOCK ISLAND   CLEAR     63  59  87 E9        30.11R                  
SMITHFIELD     CLEAR     61  58  90 E5        30.13R                  
WESTERLY       CLEAR     64  59  83 E6        30.10R                  
$$
 
CTZALL-120000-
CONNECTICUT
  
CITY           SKY/WX    TMP DP  RH WIND       PRES   REMARKS
BRADLEY INTL   PTCLDY    63  59  87 CALM      30.11R                  
HARTFORD       CLEAR     65  57  75 N3        30.10R                  
BRIDGEPORT     PTCLDY    68  62  81 NE3       30.09R                  
DANBURY        CLEAR     61  57  87 SW3       30.12R                  
GROTON         CLEAR     64  58  80 E8        30.09S                  
NEW HAVEN      MOCLDY    69  64  84 CALM      30.10R                  
CHESTER        FAIR      64  61  88 CALM      30.11R                  
MERIDEN        MOCLDY    64  58  80 CALM      30.10R                  
WILLIMANTIC    CLEAR     62  59  90 CALM      30.11S                  
OXFORD         PTCLDY    62  58  86 NE7       30.12S                  
$$

MEZ002-015-021-024-NHZ003-005-008-011-012-014-VTZ005-008-120000-
NORTHERN NEW ENGLAND
  
CITY           SKY/WX    TMP DP  RH WIND       PRES   REMARKS
PORTLAND ME    MOCLDY    59  55  87 S3        30.12S                  
BANGOR ME      CLOUDY    61  56  83 S5        30.11R                  
CONCORD NH     MOCLDY    60  57  89 CALM      30.12S                  
MANCHESTER NH  MOCLDY    64  57  78 CALM      30.11R                  
NASHUA NH      PTCLDY    61  61 100 CALM      30.13S                  
PORTSMOUTH NH  PTCLDY    59  54  83 S3        30.14R                  
JAFFREY NH     PTCLDY    58  58 100 CALM      30.14S                  
KEENE NH       CLEAR     58  57  97 CALM      30.14R                  
BURLINGTON VT  PTCLDY    65  57  75 SE5       30.08R                  
MT. WASHINGTON MOCLDY    48  41  76 N8          N/A                   
$$

NYZ052-076-120000-
EASTERN NEW YORK
  
CITY           SKY/WX    TMP DP  RH WIND       PRES   REMARKS
ALBANY         PTCLDY    65  56  72 SE5       30.11R                  
NEW YORK CITY  MOCLDY    70  57  63 E9        30.08R                  
$$
 
ANZALL-120000-
MARINE OBSERVATIONS
  
STATION/POSITION TIME  TEMP    WIND        PRES    VSBY  WAVE
                       AIR SEA DIR/SP/G                  HT/PER
                 (UTC) (F)     (DEG/KT/KT) (MB)    (MI)  (FT/S)
BOSTON BUOY      2240      63   50/ 10/ 12 1020.2R
BUZZARDS BAY     2200           40/ 18/ 19 1019.9R
NANTUCKET SOUND  2240   65 66   40/ 12/ 16 1019.3
MASS BAY-STELLWA 2204   61      60/  8/ 10 1019.5R  1 7/8  4/ 8
ISLE OF SHOALS   2200   61     100/  9/  9 1019.6R
S OF BLOCK IS    2226      65                N/A           8/ 9
$$

......................KEY.........................
  SKY/WX - SKY CONDITION/PRESENT WEATHER
  TMP    - TEMPERATURE IN FAHRENHEIT
  DWPT   - DEWPOINT IN FAHRENHEIT
  RH     - RELATIVE HUMIDITY IN PERCENT
  WIND   - DIRECTION AND SPEED IN MPH
  PRES   - MEAN SEA LEVEL PRESSURE IN INCHES OF HG
  WCI    - WIND CHILL INDEX
  VSB    - VISIBILITY IN MILES
  HX     - HEAT INDEX
  TC     - TEMPERATURE IN CELSIUS
  VRB    - VARIABLE WIND DIRECTION
  N/A    - NOT AVAILABLE
  
      

Other recent Regional Weather Roundups

Sun Oct 17, 9:04pm

Sun Oct 17, 8:04pm

Sun Oct 17, 7:04pm

Sun Oct 17, 6:04pm

Sun Oct 17, 5:04pm

Sun Oct 17, 4:04pm

Sun Oct 17, 3:04pm

Sun Oct 17, 2:04pm

Sun Oct 17, 1:04pm

Sun Oct 17, 12:04pm

Sun Oct 17, 11:04am

Sun Oct 17, 10:04am

Sun Oct 17, 9:04am

Sun Oct 17, 8:04am

Sun Oct 17, 7:04am

Sun Oct 17, 6:04am

Sun Oct 17, 5:04am

Sun Oct 17, 4:04am

Sun Oct 17, 3:04am

Sun Oct 17, 2:04am

Sun Oct 17, 1:04am

Sun Oct 17, 12:04am

Sat Oct 16, 11:04pm

Sat Oct 16, 10:04pm

Sat Oct 16, 9:04pm

Sat Oct 16, 8:04pm

Sat Oct 16, 7:04pm

Sat Oct 16, 6:04pm

Sat Oct 16, 5:04pm

Sat Oct 16, 4:04pm

Sat Oct 16, 3:04pm

Sat Oct 16, 2:04pm

Sat Oct 16, 1:04pm

Sat Oct 16, 12:04pm

Sat Oct 16, 11:04am

Sat Oct 16, 10:04am

Sat Oct 16, 9:04am

Sat Oct 16, 8:04am

Sat Oct 16, 7:04am

Sat Oct 16, 6:04am

Sat Oct 16, 5:04am

Sat Oct 16, 4:04am

Sat Oct 16, 3:04am

Sat Oct 16, 2:04am

Sat Oct 16, 1:04am

Sat Oct 16, 12:04am

Fri Oct 15, 11:04pm

Fri Oct 15, 10:04pm

Fri Oct 15, 9:04pm

Fri Oct 15, 8:04pm

Fri Oct 15, 7:04pm

Fri Oct 15, 6:04pm

Fri Oct 15, 5:04pm

Fri Oct 15, 4:04pm

Fri Oct 15, 3:04pm

Fri Oct 15, 2:05pm

Fri Oct 15, 1:05pm

Fri Oct 15, 12:04pm

Fri Oct 15, 11:05am

Fri Oct 15, 10:04am

Fri Oct 15, 9:04am

Fri Oct 15, 8:04am

Fri Oct 15, 7:04am

Fri Oct 15, 6:04am

Fri Oct 15, 5:04am

Fri Oct 15, 4:04am

Fri Oct 15, 3:05am

Fri Oct 15, 2:04am

Fri Oct 15, 1:04am

Fri Oct 15, 12:04am

Thu Oct 14, 11:04pm

Thu Oct 14, 10:04pm

Thu Oct 14, 9:04pm

Thu Oct 14, 8:04pm

Thu Oct 14, 7:04pm

Thu Oct 14, 6:04pm

Thu Oct 14, 5:04pm

Thu Oct 14, 4:04pm

Thu Oct 14, 3:04pm

Thu Oct 14, 2:04pm

Thu Oct 14, 1:04pm

Thu Oct 14, 12:04pm

Thu Oct 14, 11:04am

Thu Oct 14, 10:04am

Thu Oct 14, 9:04am

Thu Oct 14, 8:04am

Thu Oct 14, 7:04am

Thu Oct 14, 6:04am

Thu Oct 14, 5:04am

Thu Oct 14, 4:04am

Thu Oct 14, 3:04am

Thu Oct 14, 2:04am

Thu Oct 14, 1:04am

Thu Oct 14, 12:04am

Wed Oct 13, 11:04pm

Wed Oct 13, 10:04pm

Wed Oct 13, 9:04pm

Wed Oct 13, 8:04pm

Wed Oct 13, 7:04pm

Wed Oct 13, 6:04pm

Wed Oct 13, 5:04pm

Wed Oct 13, 4:04pm

Wed Oct 13, 3:04pm

Wed Oct 13, 2:04pm

Wed Oct 13, 1:04pm

Wed Oct 13, 12:04pm

Wed Oct 13, 11:04am

Wed Oct 13, 10:04am

Wed Oct 13, 9:04am

Wed Oct 13, 8:04am

Wed Oct 13, 7:04am

Wed Oct 13, 6:04am

Wed Oct 13, 5:04am

Wed Oct 13, 4:04am

Wed Oct 13, 3:04am

Wed Oct 13, 2:04am

Wed Oct 13, 1:04am

Wed Oct 13, 12:04am

Tue Oct 12, 11:04pm

Tue Oct 12, 10:04pm

Tue Oct 12, 9:04pm

Tue Oct 12, 8:04pm

Tue Oct 12, 7:04pm

Tue Oct 12, 6:04pm

Tue Oct 12, 5:04pm

Tue Oct 12, 4:04pm

Tue Oct 12, 3:04pm

Tue Oct 12, 2:04pm

Tue Oct 12, 1:04pm

Tue Oct 12, 12:04pm

Tue Oct 12, 11:05am

Tue Oct 12, 10:04am

Tue Oct 12, 9:04am

Tue Oct 12, 8:04am

Tue Oct 12, 7:04am

Tue Oct 12, 6:04am

Tue Oct 12, 5:04am

Tue Oct 12, 4:04am

Tue Oct 12, 3:04am

Tue Oct 12, 2:04am

Tue Oct 12, 1:04am

Tue Oct 12, 12:04am

Mon Oct 11, 11:04pm

Mon Oct 11, 10:04pm

Mon Oct 11, 9:04pm

Mon Oct 11, 8:04pm

Mon Oct 11, 6:04pm

Mon Oct 11, 5:04pm

Mon Oct 11, 4:04pm

Mon Oct 11, 3:04pm

Mon Oct 11, 2:04pm

Mon Oct 11, 1:04pm

Mon Oct 11, 12:04pm

Mon Oct 11, 11:04am

Mon Oct 11, 10:04am

Mon Oct 11, 9:04am

Mon Oct 11, 8:04am

Mon Oct 11, 7:04am

Mon Oct 11, 6:04am

Mon Oct 11, 5:04am

Mon Oct 11, 4:04am

Mon Oct 11, 3:04am

Mon Oct 11, 2:04am

Mon Oct 11, 1:04am

Mon Oct 11, 12:05am

Sun Oct 10, 11:04pm

Sun Oct 10, 10:04pm

Meta data:

ID: e377947b-c050-4cf9-9ae1-9525b4a529c9
Link: https://api.weather.gov/products/e377947b-c050-4cf9-9ae1-9525b4a529c9